• In India
  • List of Countries
  • For 7 days
  • Water Temperature
  • Satellite Maps
  • Weather Map
  • Weather Widgets
  • user-avatar
    Login

    Hourly Weather Sydney

    Today, 21 January, Sunday

    Time Temperature Precipitation Wind Pressure Humidity
    00:00 +20°C° 0 mm 2 mps 760 mmHg 79%
    01:00 +19°C° 0 mm 2 mps 760 mmHg 82%
    02:00 +19°C° 0 mm 2 mps 759 mmHg 82%
    03:00 +19°C° 0 mm 2 mps 759 mmHg 82%
    04:00 +18°C° 0 mm 2 mps 759 mmHg 86%
    05:00 +20°C° 0 mm 2 mps 759 mmHg 78%
    06:00 +21°C° 0 mm 2 mps 759 mmHg 71%
    07:00 +24°C° 0 mm 2 mps 759 mmHg 63%
    08:00 +27°C° 0 mm 3 mps 759 mmHg 52%
    09:00 +30°C° 0 mm 3 mps 759 mmHg 41%
    10:00 +34°C° 0 mm 3 mps 759 mmHg 35%
    11:00 +36°C° 0 mm 3 mps 758 mmHg 31%
    12:00 +37°C° 0 mm 4 mps 758 mmHg 27%
    13:00 +40°C° 0 mm 5 mps 757 mmHg 23%
    14:00 +39°C° 0 mm 5 mps 757 mmHg 25%
    15:00 +39°C° 0 mm 6 mps 756 mmHg 28%
    16:00 +38°C° 0 mm 7 mps 756 mmHg 31%
    17:00 +35°C° 0 mm 7 mps 756 mmHg 39%
    18:00 +32°C° 0 mm 7 mps 756 mmHg 48%
    19:00 +28°C° 0 mm 7 mps 756 mmHg 57%
    20:00 +27°C° 0 mm 6 mps 756 mmHg 61%
    21:00 +26°C° 0 mm 6 mps 756 mmHg 65%
    22:00 +24°C° 0 mm 6 mps 757 mmHg 69%
    23:00 +23°C° 0 mm 6 mps 756 mmHg 72%

    Tomorrow, 22 January, Monday

    Time Temperature Precipitation Wind Pressure Humidity
    00:00 +22°C° 0 mm 5 mps 756 mmHg 74%
    01:00 +22°C° 0 mm 5 mps 756 mmHg 77%
    02:00 +21°C° 0 mm 5 mps 756 mmHg 78%
    03:00 +21°C° 0 mm 4 mps 756 mmHg 80%
    04:00 +21°C° 0 mm 4 mps 755 mmHg 81%
    05:00 +22°C° 0 mm 4 mps 756 mmHg 75%
    06:00 +23°C° 0 mm 4 mps 756 mmHg 68%
    07:00 +26°C° 0 mm 4 mps 756 mmHg 61%
    08:00 +30°C° 0 mm 4 mps 756 mmHg 49%
    09:00 +35°C° 0 mm 4 mps 756 mmHg 37%
    10:00 +39°C° 0 mm 3 mps 756 mmHg 25%
    11:00 +42°C° 0 mm 4 mps 755 mmHg 21%
    12:00 +45°C° 0 mm 5 mps 755 mmHg 18%
    13:00 +46°C° 0 mm 5 mps 754 mmHg 14%
    14:00 +45°C° 0 mm 6 mps 754 mmHg 17%
    15:00 +43°C° 0 mm 7 mps 754 mmHg 20%
    16:00 +41°C° 0 mm 7 mps 753 mmHg 23%
    17:00 +39°C° 0 mm 7 mps 753 mmHg 28%
    18:00 +35°C° 0 mm 7 mps 753 mmHg 34%
    19:00 +33°C° 0 mm 7 mps 754 mmHg 40%
    20:00 +32°C° 0 mm 7 mps 754 mmHg 41%
    21:00 +30°C° 0 mm 6 mps 755 mmHg 42%
    22:00 +29°C° 0 mm 6 mps 755 mmHg 43%
    23:00 +28°C° 0 mm 5 mps 755 mmHg 46%

    Day after tomorrow, 23 January, Tuesday

    Time Temperature Precipitation Wind Pressure Humidity
    00:00 +27°C° 0 mm 4 mps 755 mmHg 49%
    01:00 +27°C° 0 mm 3 mps 755 mmHg 52%
    02:00 +26°C° 0 mm 3 mps 755 mmHg 55%
    03:00 +26°C° 0 mm 2 mps 755 mmHg 59%
    04:00 +25°C° 0 mm 1 mps 755 mmHg 62%
    05:00 +26°C° 0 mm 2 mps 756 mmHg 62%
    06:00 +26°C° 0 mm 2 mps 756 mmHg 61%
    07:00 +27°C° 0 mm 2 mps 757 mmHg 60%
    08:00 +29°C° 0 mm 2 mps 757 mmHg 55%
    09:00 +31°C° 0 mm 2 mps 757 mmHg 50%
    10:00 +32°C° 0 mm 2 mps 757 mmHg 45%
    11:00 +35°C° 0 mm 3 mps 757 mmHg 39%
    12:00 +37°C° 0 mm 4 mps 756 mmHg 32%
    13:00 +40°C° 0 mm 5 mps 756 mmHg 26%
    14:00 +40°C° 0 mm 5 mps 755 mmHg 26%
    15:00 +40°C° 0 mm 5 mps 755 mmHg 26%
    16:00 +40°C° 0 mm 5 mps 755 mmHg 25%
    17:00 +38°C° 0 mm 6 mps 755 mmHg 32%
    18:00 +35°C° 0 mm 6 mps 755 mmHg 38%
    19:00 +32°C° 0 mm 6 mps 756 mmHg 45%
    20:00 +30°C° 0.1 mm 5 mps 756 mmHg 53%
    21:00 +28°C° 0.1 mm 5 mps 757 mmHg 60%
    22:00 +26°C° 0.1 mm 5 mps 757 mmHg 68%
    23:00 +25°C° 0.1 mm 4 mps 757 mmHg 73%

    24 January, Wednesday

    Time Temperature Precipitation Wind Pressure Humidity
    00:00 +25°C° 0.1 mm 3 mps 757 mmHg 79%
    01:00 +24°C° 0.1 mm 2 mps 757 mmHg 84%
    02:00 +24°C° 0 mm 2 mps 757 mmHg 87%
    03:00 +24°C° 0 mm 2 mps 757 mmHg 90%
    04:00 +23°C° 0 mm 2 mps 757 mmHg 93%
    05:00 +24°C° 0 mm 2 mps 757 mmHg 89%
    06:00 +25°C° 0 mm 2 mps 758 mmHg 86%
    07:00 +25°C° 0 mm 2 mps 758 mmHg 83%
    08:00 +28°C° 0 mm 2 mps 758 mmHg 70%
    09:00 +31°C° 0 mm 3 mps 758 mmHg 56%
    10:00 +35°C° 0 mm 3 mps 758 mmHg 43%
    11:00 +37°C° 0 mm 4 mps 757 mmHg 37%
    12:00 +39°C° 0 mm 5 mps 757 mmHg 32%
    13:00 +40°C° 0 mm 6 mps 756 mmHg 27%
    14:00 +39°C° 0 mm 7 mps 756 mmHg 31%
    15:00 +38°C° 0 mm 7 mps 755 mmHg 35%
    16:00 +36°C° 0 mm 7 mps 755 mmHg 39%
    17:00 +34°C° 0 mm 7 mps 755 mmHg 48%
    18:00 +32°C° 0 mm 7 mps 756 mmHg 56%
    19:00 +28°C° 0 mm 7 mps 756 mmHg 65%
    20:00 +27°C° 0 mm 7 mps 756 mmHg 69%
    21:00 +26°C° 0 mm 6 mps 757 mmHg 74%
    22:00 +24°C° 0 mm 6 mps 758 mmHg 78%
    23:00 +25°C° 0 mm 5 mps 757 mmHg 81%

    25 January, Thursday

    Time Temperature Precipitation Wind Pressure Humidity
    00:00 +23°C° 0 mm 5 mps 757 mmHg 84%
    01:00 +23°C° 0 mm 4 mps 757 mmHg 87%
    02:00 +23°C° 0 mm 4 mps 757 mmHg 88%
    03:00 +23°C° 0 mm 4 mps 757 mmHg 89%
    04:00 +22°C° 0 mm 4 mps 757 mmHg 90%
    05:00 +23°C° 0 mm 4 mps 757 mmHg 86%
    06:00 +25°C° 0 mm 4 mps 758 mmHg 82%
    07:00 +26°C° 0 mm 4 mps 758 mmHg 79%
    08:00 +28°C° 0 mm 4 mps 758 mmHg 68%
    09:00 +32°C° 0 mm 4 mps 758 mmHg 58%
    10:00 +35°C° 0 mm 4 mps 758 mmHg 47%
    11:00 +36°C° 0 mm 5 mps 757 mmHg 45%
    12:00 +37°C° 0 mm 5 mps 757 mmHg 42%
    13:00 +39°C° 0 mm 6 mps 756 mmHg 39%
    14:00 +38°C° 0 mm 7 mps 756 mmHg 43%
    15:00 +36°C° 0 mm 7 mps 756 mmHg 47%
    16:00 +35°C° 0 mm 8 mps 756 mmHg 51%
    17:00 +33°C° 0.1 mm 7 mps 756 mmHg 60%
    18:00 +30°C° 0.1 mm 7 mps 757 mmHg 69%
    19:00 +28°C° 0.1 mm 6 mps 757 mmHg 77%
    20:00 +27°C° 0.1 mm 6 mps 757 mmHg 81%
    21:00 +27°C° 0.1 mm 5 mps 758 mmHg 84%
    22:00 +26°C° 0.1 mm 5 mps 758 mmHg 88%
    23:00 +26°C° 0 mm 5 mps 758 mmHg 88%

    26 January, Friday

    Time Temperature Precipitation Wind Pressure Humidity
    00:00 +26°C° 0 mm 5 mps 758 mmHg 89%
    01:00 +26°C° 0 mm 5 mps 758 mmHg 89%
    02:00 +26°C° 0 mm 4 mps 758 mmHg 90%
    03:00 +25°C° 0 mm 4 mps 758 mmHg 91%
    04:00 +25°C° 0 mm 4 mps 758 mmHg 92%
    05:00 +25°C° 0 mm 4 mps 758 mmHg 89%
    06:00 +26°C° 0 mm 4 mps 759 mmHg 86%
    07:00 +26°C° 0 mm 5 mps 759 mmHg 84%
    08:00 +28°C° 0 mm 5 mps 759 mmHg 74%
    09:00 +30°C° 0 mm 5 mps 759 mmHg 65%
    10:00 +33°C° 0 mm 4 mps 759 mmHg 56%
    11:00 +35°C° 0 mm 5 mps 759 mmHg 51%
    12:00 +36°C° 0 mm 6 mps 758 mmHg 45%
    13:00 +38°C° 0 mm 6 mps 758 mmHg 40%
    14:00 +36°C° 0 mm 7 mps 758 mmHg 43%
    15:00 +36°C° 0 mm 7 mps 757 mmHg 47%
    16:00 +35°C° 0 mm 7 mps 757 mmHg 50%
    17:00 +33°C° 0 mm 7 mps 758 mmHg 57%
    18:00 +30°C° 0 mm 7 mps 758 mmHg 64%
    19:00 +28°C° 0 mm 7 mps 758 mmHg 71%
    20:00 +27°C° 0 mm 6 mps 759 mmHg 75%
    21:00 +26°C° 0 mm 6 mps 759 mmHg 80%
    22:00 +25°C° 0 mm 5 mps 760 mmHg 84%
    23:00 +25°C° 0 mm 5 mps 759 mmHg 86%
    Show more